Back to catalog

COSMOS 2251 DEB

AliveLEO
NORAD 33892·DEBRIS·🇷🇺 Russia

Launched Jun 16, 1993 from Plesetsk Cosmodrome

Loading…

Next Passes (next 24 hours)

TLE

FreshSource: Space-Track

Epoch: Sep 14, 2026, 04:19 UTC

1 33892U 93036CV  26257.18001529  .00000767  00000-0  32297-3 0  9990
2 33892  73.8029 319.2009 0115382 301.1937  88.4526 14.24069593908759

Track COSMOS 2251 DEB in real time with AllMySat

Download on the App Store